When you browse on this site, cookies collect data to enhance your experience and personalize the content and advertising you see.
Visit our Privacy Policy to learn more. By continuing to use the site, you agree to this use of cookies and data.
  • In Österreich
  • Länderverzeichnis
  • Für 7 Tage
  • Wassertemperatur
  • Satellitenkarten
  • Wetterkarte
  • News
  • Widgets
  • user-avatar
    Anmelden

    Stündliche Wetter Dobraya Volya

    Heute, 23 Juli, Dienstag

    Zeit Temperatur Niederschläge Wind Luftdruck Luftfeuchtigkeit
    00:00 +14°C° 0 mm 3 m/S 750 mmHg 94%
    01:00 +14°C° 0 mm 3 m/S 750 mmHg 94%
    02:00 +13°C° 0 mm 3 m/S 750 mmHg 95%
    03:00 +12°C° 0 mm 3 m/S 749 mmHg 95%
    04:00 +12°C° 0 mm 3 m/S 749 mmHg 95%
    05:00 +11°C° 0 mm 3 m/S 749 mmHg 96%
    06:00 +12°C° 0 mm 4 m/S 749 mmHg 92%
    07:00 +14°C° 0 mm 4 m/S 749 mmHg 89%
    08:00 +15°C° 0 mm 4 m/S 749 mmHg 85%
    09:00 +17°C° 0 mm 5 m/S 749 mmHg 80%
    10:00 +19°C° 0 mm 5 m/S 749 mmHg 74%
    11:00 +21°C° 0 mm 5 m/S 749 mmHg 68%
    12:00 +21°C° 0.1 mm 6 m/S 749 mmHg 68%
    13:00 +21°C° 0.1 mm 6 m/S 748 mmHg 67%
    14:00 +22°C° 0.1 mm 6 m/S 748 mmHg 67%
    15:00 +22°C° 0.5 mm 5 m/S 748 mmHg 70%
    16:00 +21°C° 0.5 mm 5 m/S 748 mmHg 73%
    17:00 +21°C° 0.5 mm 5 m/S 748 mmHg 76%
    18:00 +20°C° 0.3 mm 4 m/S 748 mmHg 80%
    19:00 +19°C° 0.3 mm 4 m/S 748 mmHg 84%
    20:00 +18°C° 0.3 mm 3 m/S 747 mmHg 88%
    21:00 +18°C° 0.1 mm 3 m/S 748 mmHg 91%
    22:00 +17°C° 0.1 mm 3 m/S 748 mmHg 93%
    23:00 +16°C° 0.1 mm 3 m/S 748 mmHg 95%

    Morgen, 24 Juli, Mittwoch

    Zeit Temperatur Niederschläge Wind Luftdruck Luftfeuchtigkeit
    00:00 +16°C° 0 mm 3 m/S 748 mmHg 96%
    01:00 +16°C° 0 mm 3 m/S 748 mmHg 96%
    02:00 +14°C° 0 mm 3 m/S 748 mmHg 97%
    03:00 +14°C° 0 mm 3 m/S 748 mmHg 97%
    04:00 +14°C° 0 mm 3 m/S 748 mmHg 97%
    05:00 +14°C° 0 mm 4 m/S 748 mmHg 97%
    06:00 +15°C° 0 mm 4 m/S 748 mmHg 94%
    07:00 +17°C° 0 mm 4 m/S 748 mmHg 91%
    08:00 +19°C° 0 mm 4 m/S 748 mmHg 88%
    09:00 +20°C° 0 mm 4 m/S 748 mmHg 79%
    10:00 +22°C° 0 mm 4 m/S 748 mmHg 70%
    11:00 +25°C° 0 mm 5 m/S 748 mmHg 60%
    12:00 +25°C° 0 mm 5 m/S 748 mmHg 58%
    13:00 +26°C° 0 mm 5 m/S 748 mmHg 56%
    14:00 +26°C° 0 mm 5 m/S 748 mmHg 54%
    15:00 +26°C° 0 mm 4 m/S 748 mmHg 56%
    16:00 +26°C° 0 mm 4 m/S 748 mmHg 59%
    17:00 +26°C° 0 mm 4 m/S 748 mmHg 61%
    18:00 +24°C° 0 mm 3 m/S 748 mmHg 67%
    19:00 +21°C° 0 mm 3 m/S 748 mmHg 72%
    20:00 +20°C° 0 mm 2 m/S 748 mmHg 78%
    21:00 +19°C° 0 mm 2 m/S 749 mmHg 81%
    22:00 +18°C° 0 mm 2 m/S 749 mmHg 84%
    23:00 +17°C° 0 mm 2 m/S 749 mmHg 87%

    übermorgen, 25 Juli, Donnerstag

    Zeit Temperatur Niederschläge Wind Luftdruck Luftfeuchtigkeit
    00:00 +16°C° 0 mm 2 m/S 749 mmHg 88%
    01:00 +16°C° 0 mm 2 m/S 749 mmHg 89%
    02:00 +16°C° 0 mm 2 m/S 749 mmHg 91%
    03:00 +15°C° 0 mm 2 m/S 749 mmHg 91%
    04:00 +15°C° 0 mm 2 m/S 749 mmHg 91%
    05:00 +15°C° 0 mm 2 m/S 749 mmHg 91%
    06:00 +16°C° 0 mm 3 m/S 749 mmHg 86%
    07:00 +18°C° 0 mm 3 m/S 749 mmHg 81%
    08:00 +20°C° 0 mm 3 m/S 749 mmHg 76%
    09:00 +21°C° 0 mm 4 m/S 749 mmHg 71%
    10:00 +23°C° 0 mm 4 m/S 749 mmHg 66%
    11:00 +25°C° 0 mm 5 m/S 749 mmHg 61%
    12:00 +25°C° 0.1 mm 5 m/S 749 mmHg 60%
    13:00 +26°C° 0.1 mm 5 m/S 749 mmHg 59%
    14:00 +26°C° 0.1 mm 6 m/S 748 mmHg 58%
    15:00 +25°C° 0.4 mm 5 m/S 748 mmHg 62%
    16:00 +25°C° 0.4 mm 5 m/S 748 mmHg 66%
    17:00 +23°C° 0.4 mm 4 m/S 748 mmHg 70%
    18:00 +22°C° 0.2 mm 4 m/S 747 mmHg 75%
    19:00 +21°C° 0.2 mm 3 m/S 747 mmHg 81%
    20:00 +19°C° 0.2 mm 2 m/S 747 mmHg 86%
    21:00 +18°C° 0.1 mm 2 m/S 747 mmHg 89%
    22:00 +17°C° 0.1 mm 2 m/S 747 mmHg 91%
    23:00 +16°C° 0.1 mm 2 m/S 747 mmHg 94%

    26 Juli, Freitag

    Zeit Temperatur Niederschläge Wind Luftdruck Luftfeuchtigkeit
    00:00 +15°C° 0 mm 2 m/S 747 mmHg 95%
    01:00 +15°C° 0 mm 2 m/S 747 mmHg 95%
    02:00 +14°C° 0 mm 2 m/S 747 mmHg 95%
    03:00 +14°C° 0 mm 2 m/S 747 mmHg 95%
    04:00 +14°C° 0 mm 2 m/S 747 mmHg 95%
    05:00 +13°C° 0 mm 2 m/S 747 mmHg 95%
    06:00 +14°C° 0 mm 2 m/S 747 mmHg 93%
    07:00 +15°C° 0 mm 2 m/S 747 mmHg 91%
    08:00 +16°C° 0 mm 2 m/S 747 mmHg 90%
    09:00 +18°C° 0 mm 2 m/S 747 mmHg 84%
    10:00 +19°C° 0 mm 2 m/S 747 mmHg 78%
    11:00 +21°C° 0 mm 2 m/S 748 mmHg 73%
    12:00 +21°C° 0.3 mm 3 m/S 748 mmHg 72%
    13:00 +22°C° 0.3 mm 3 m/S 747 mmHg 72%
    14:00 +22°C° 0.3 mm 4 m/S 747 mmHg 71%
    15:00 +22°C° 0.1 mm 4 m/S 747 mmHg 73%
    16:00 +21°C° 0.1 mm 4 m/S 747 mmHg 76%
    17:00 +21°C° 0.1 mm 5 m/S 747 mmHg 78%
    18:00 +20°C° 0.1 mm 4 m/S 747 mmHg 83%
    19:00 +19°C° 0.1 mm 3 m/S 747 mmHg 89%
    20:00 +18°C° 0.1 mm 2 m/S 747 mmHg 94%
    21:00 +18°C° 0 mm 2 m/S 747 mmHg 94%
    22:00 +18°C° 0 mm 2 m/S 747 mmHg 95%
    23:00 +18°C° 0 mm 2 m/S 748 mmHg 95%

    27 Juli, Samstag

    Zeit Temperatur Niederschläge Wind Luftdruck Luftfeuchtigkeit
    00:00 +18°C° 0 mm 2 m/S 748 mmHg 95%
    01:00 +17°C° 0 mm 2 m/S 748 mmHg 96%
    02:00 +17°C° 0 mm 3 m/S 748 mmHg 96%
    03:00 +17°C° 0 mm 2 m/S 748 mmHg 96%
    04:00 +17°C° 0 mm 2 m/S 747 mmHg 97%
    05:00 +17°C° 0 mm 2 m/S 747 mmHg 97%
    06:00 +18°C° 0 mm 3 m/S 748 mmHg 94%
    07:00 +19°C° 0 mm 3 m/S 748 mmHg 90%
    08:00 +20°C° 0 mm 4 m/S 748 mmHg 87%
    09:00 +22°C° 0.1 mm 4 m/S 748 mmHg 81%
    10:00 +23°C° 0.1 mm 5 m/S 748 mmHg 74%
    11:00 +26°C° 0.1 mm 5 m/S 748 mmHg 68%
    12:00 +27°C° 0.1 mm 5 m/S 748 mmHg 65%
    13:00 +27°C° 0.1 mm 5 m/S 748 mmHg 62%
    14:00 +28°C° 0.1 mm 5 m/S 748 mmHg 59%
    15:00 +28°C° 0.3 mm 5 m/S 748 mmHg 63%
    16:00 +27°C° 0.3 mm 5 m/S 747 mmHg 68%
    17:00 +27°C° 0.3 mm 4 m/S 747 mmHg 72%
    18:00 +25°C° 0.2 mm 4 m/S 747 mmHg 77%
    19:00 +24°C° 0.2 mm 3 m/S 747 mmHg 82%
    20:00 +22°C° 0.2 mm 3 m/S 747 mmHg 87%
    21:00 +21°C° 0 mm 3 m/S 747 mmHg 89%
    22:00 +20°C° 0 mm 3 m/S 748 mmHg 91%
    23:00 +20°C° 0 mm 3 m/S 748 mmHg 94%

    28 Juli, Sonntag

    Zeit Temperatur Niederschläge Wind Luftdruck Luftfeuchtigkeit
    00:00 +19°C° 0 mm 3 m/S 748 mmHg 94%
    01:00 +19°C° 0 mm 3 m/S 747 mmHg 94%
    02:00 +19°C° 0 mm 2 m/S 747 mmHg 94%
    03:00 +18°C° 0 mm 3 m/S 747 mmHg 94%
    04:00 +18°C° 0 mm 3 m/S 747 mmHg 94%
    05:00 +18°C° 0 mm 3 m/S 747 mmHg 94%
    06:00 +19°C° 0 mm 3 m/S 747 mmHg 90%
    07:00 +21°C° 0 mm 3 m/S 747 mmHg 86%
    08:00 +22°C° 0 mm 3 m/S 748 mmHg 82%
    09:00 +25°C° 0 mm 3 m/S 748 mmHg 76%
    10:00 +27°C° 0 mm 4 m/S 748 mmHg 69%
    11:00 +28°C° 0 mm 4 m/S 748 mmHg 63%
    12:00 +28°C° 0 mm 4 m/S 747 mmHg 61%
    13:00 +29°C° 0 mm 4 m/S 747 mmHg 58%
    14:00 +29°C° 0 mm 4 m/S 747 mmHg 56%
    15:00 +29°C° 0 mm 4 m/S 747 mmHg 58%
    16:00 +29°C° 0 mm 4 m/S 747 mmHg 61%
    17:00 +29°C° 0 mm 4 m/S 747 mmHg 63%
    18:00 +27°C° 0.1 mm 4 m/S 747 mmHg 69%
    19:00 +26°C° 0.1 mm 3 m/S 747 mmHg 76%
    20:00 +24°C° 0.1 mm 3 m/S 747 mmHg 82%
    21:00 +22°C° 0 mm 3 m/S 747 mmHg 86%
    22:00 +21°C° 0 mm 3 m/S 748 mmHg 90%
    23:00 +20°C° 0 mm 3 m/S 748 mmHg 94%
    Mehr zeigen